Dewpoint
71 71 71 72 72 71 71 67 58 56 55 51 51 52 53 59 59 59 57 60 59 58 57 58 57 56 57 53 53 53 55 54 56 54 55 65 69 67 70 70 69 68 69 71 73 75 76 77 76 76 75 76 76 76 76 75 76 75 75 75 75 76 76 76 76 76 76 75 75 75 74 75 75 75 75 74 74 74 72 72 72 73 74 74 75 75 76 75 75 75 75 75 76 76 76 76 77
69 71 72 73 72 70 65 66 58 51 52 49 50 54 56 57 60 56 56 57 56 56 57 58 57 57 58 57 56 55 59 57 61 62 66 68 68 67 68 68 68 69 69 70 71 72 74 76 76 76 76 76 76 76 76 76 76 75 75 76 76 76 76 76 75 75 75 75 75 75 75 74 75 75 75 75 74 74 74 73 72 73 73 74 74 75 75 74 75 75 75 75 75 75 76 76 76
70 72 72 73 71 69 65 65 55 50 49 46 51 54 58 57 56 57 57 58 57 56 58 58 57 57 57 57 58 59 59 61 62 65 66 68 66 67 68 67 69 70 71 70 71 72 74 76 76 76 76 76 75 75 76 76 76 75 76 76 76 76 76 76 75 74 75 75 75 75 75 74 74 75 75 75 75 74 74 74 73 73 73 73 74 74 75 74 75 75 75 75 75 75 75 76 76
71 72 71 71 66 66 62 58 55 50 49 47 50 56 58 58 57 59 60 57 57 58 57 57 57 58 58 54 59 60 62 62 64 64 66 66 66 67 67 67 71 71 70 71 74 73 74 76 76 76 76 75 75 75 75 75 75 75 76 76 76 75 75 75 74 75 75 74 74 75 75 74 74 74 75 75 75 75 74 74 73 74 73 72 72 73 74 74 75 75 76 75 75 75 74 74 75
72 72 72 71 66 62 60 57 53 50 47 50 50 56 59 60 59 59 59 58 58 58 57 56 56 59 60 60 61 59 62 63 64 64 65 66 66 67 67 69 71 71 71 71 70 73 75 76 76 76 75 76 75 75 75 75 75 76 76 76 76 75 75 75 75 74 75 76 75 74 75 75 75 74 75 75 75 75 74 75 75 74 74 73 73 73 74 74 74 74 75 75 74 74 74 74 74
71 71 73 72 65 66 59 53 51 52 53 58 53 56 59 60 62 58 56 59 60 59 58 56 56 57 58 60 62 60 64 63 65 65 66 66 67 68 68 70 69 70 70 70 71 72 75 77 76 76 76 76 76 76 76 75 76 75 76 75 75 75 75 74 75 75 75 75 75 75 74 74 75 75 75 74 74 74 75 75 75 74 73 74 74 72 73 74 74 74 74 74 74 73 73 73 73
71 70 70 69 66 64 57 52 52 51 56 60 57 59 60 61 62 58 55 57 57 57 58 57 57 57 58 61 62 65 66 65 65 65 67 67 68 68 69 68 69 71 71 71 71 72 74 76 76 76 75 75 75 75 75 75 75 75 75 75 75 74 75 75 74 75 75 75 75 75 75 75 75 74 75 75 74 75 75 75 75 75 74 74 73 73 73 74 74 74 74 73 74 73 74 74 74
71 70 63 63 57 57 54 54 53 55 56 61 59 59 62 64 62 58 55 56 53 56 56 57 57 56 57 59 60 64 66 67 67 67 68 68 68 69 69 68 68 69 70 71 71 72 76 76 76 75 75 75 75 75 75 75 75 74 74 74 74 74 74 75 75 75 75 75 75 75 75 75 75 74 74 74 74 75 75 75 75 75 75 74 74 73 74 73 73 74 74 74 73 74 74 73 73
69 67 66 62 55 55 52 53 55 58 57 60 60 62 62 64 63 61 55 55 53 55 55 56 56 56 57 59 61 64 66 68 68 70 68 68 68 69 68 67 67 70 70 69 68 72 72 76 75 75 75 75 75 75 75 75 75 75 74 74 74 74 75 75 74 74 74 75 75 75 75 75 75 75 75 74 74 74 75 74 75 75 74 74 74 73 74 73 73 73 74 74 73 74 74 75 75
67 65 56 55 54 52 52 50 51 55 58 59 61 62 63 64 65 62 58 54 54 54 55 57 57 56 56 58 61 64 66 69 68 68 68 68 69 69 68 68 69 70 69 67 69 70 73 75 75 75 74 74 75 75 75 75 75 75 75 75 74 74 74 74 75 75 74 74 75 75 75 75 75 75 74 74 75 74 75 75 74 75 75 75 74 74 74 73 73 72 72 73 74 75 74 75 75
63 65 62 57 51 48 50 48 51 54 58 60 59 61 64 64 62 63 60 56 54 54 56 57 55 55 56 58 62 65 68 68 68 68 69 69 69 69 67 69 68 68 67 67 69 70 71 75 75 75 75 75 75 75 75 74 74 75 75 75 74 75 75 74 75 75 74 74 75 75 74 75 75 75 75 74 75 74 75 75 75 74 75 75 74 74 74 74 72 72 73 75 74 75 75 75 75
59 52 60 51 47 49 48 50 53 55 58 58 58 63 64 63 63 58 55 54 54 55 56 57 54 56 55 57 62 66 68 67 68 68 69 69 68 68 69 68 68 67 66 69 70 71 74 76 74 75 75 75 75 75 74 74 74 74 75 75 75 74 75 74 74 75 74 74 74 74 75 75 74 74 75 75 75 75 75 74 74 74 75 75 74 74 74 73 72 72 73 74 75 75 75 75 75
58 53 51 49 48 49 49 52 53 55 55 56 57 63 64 62 62 61 59 57 54 54 55 56 57 57 55 59 64 65 66 67 68 68 69 67 68 68 68 68 68 67 69 71 71 73 74 75 75 76 75 75 75 74 74 74 74 74 74 74 74 74 74 75 74 74 75 75 74 75 75 75 75 74 74 74 74 75 75 74 74 74 74 74 75 75 75 74 74 73 73 74 75 75 75 75 75
56 53 54 49 53 49 49 49 52 50 50 58 59 64 63 63 62 62 58 54 54 56 56 58 58 56 56 59 63 62 65 67 68 68 68 68 67 67 67 67 68 68 70 72 73 73 74 75 75 75 76 76 76 75 74 73 73 73 73 73 73 73 73 73 73 74 74 75 75 75 75 75 75 74 74 74 74 74 74 74 74 74 74 74 74 74 75 74 74 73 74 75 75 76 76 76 75
55 53 53 51 47 53 50 51 50 48 50 56 63 61 64 63 64 63 62 55 55 57 58 59 59 58 55 57 59 60 65 67 67 68 68 68 67 67 67 67 68 68 68 69 70 71 74 74 74 75 75 76 76 76 76 75 73 73 73 73 72 72 73 71 72 72 74 74 74 74 75 75 75 75 75 75 74 75 74 74 74 74 74 74 74 74 74 74 72 72 75 75 76 75 75 75 75
53 51 49 45 43 47 47 51 52 48 54 55 60 64 61 63 63 62 62 62 57 58 58 58 59 57 56 56 58 62 65 66 68 68 67 67 67 67 67 67 67 68 69 68 68 70 70 73 73 74 75 76 76 75 76 75 73 73 73 73 73 73 73 72 72 72 73 72 72 73 74 75 75 75 75 74 75 75 75 74 74 74 74 74 73 73 73 73 72 73 74 75 75 75 75 75 75
54 56 47 39 39 44 45 49 49 48 52 56 60 60 59 57 61 64 61 59 57 57 57 58 58 59 59 59 61 64 64 67 68 67 67 67 66 65 67 67 68 68 68 68 70 70 69 72 73 73 75 76 76 75 75 75 75 74 72 73 73 73 73 73 72 72 73 72 71 73 74 77 77 76 75 75 75 74 75 74 74 74 74 73 73 73 73 72 72 73 74 75 75 75 75 75 75
49 47 39 38 40 42 48 50 51 53 53 59 60 59 59 61 58 60 58 58 57 57 59 59 60 61 61 62 64 65 65 66 67 66 65 66 66 65 66 67 67 67 68 68 69 70 69 71 72 73 74 76 75 74 74 75 74 73 73 74 73 73 73 73 73 74 72 73 72 74 75 76 76 76 76 75 75 75 74 74 73 74 73 73 73 73 73 72 72 73 73 75 75 75 75 72 74
45 40 41 36 39 43 50 52 56 54 54 59 62 61 61 63 59 58 60 58 55 56 58 59 61 62 63 64 65 65 65 65 66 65 64 64 65 64 65 67 67 66 67 68 69 69 71 71 71 71 73 74 74 75 74 74 74 74 73 74 74 73 73 74 74 76 75 73 75 74 76 76 75 76 76 75 74 74 74 74 74 74 74 73 73 73 72 72 72 74 75 75 75 75 75 70 71
45 37 37 40 42 44 52 57 59 60 58 59 61 61 61 62 60 61 58 59 57 55 58 58 60 61 63 64 65 65 65 64 65 65 64 65 65 64 64 64 65 67 66 66 68 69 70 70 71 73 73 73 72 72 74 74 74 74 73 74 74 74 74 74 74 74 74 74 74 74 75 76 75 75 74 75 74 74 74 75 74 74 74 74 73 72 72 73 74 75 76 76 75 73 72 71 70
49 41 38 44 45 42 55 56 58 60 59 60 58 62 60 61 62 60 60 57 58 57 58 61 60 61 63 63 64 63 64 64 65 64 64 65 64 63 63 64 64 66 66 67 68 68 70 70 71 72 73 73 72 71 73 72 74 72 73 74 74 75 75 73 73 73 73 74 75 74 74 75 74 74 74 74 73 73 73 74 75 74 74 74 75 74 73 73 74 74 74 73 72 71 69 70 70
33 39 39 42 45 45 55 53 59 60 60 59 60 58 60 65 60 59 58 56 55 58 55 61 60 61 63 63 64 63 63 63 64 64 64 64 63 63 63 63 63 63 66 67 65 67 68 69 70 71 72 73 72 71 72 72 72 72 72 73 74 73 73 74 75 74 73 74 74 74 74 74 74 74 74 74 74 74 74 74 73 74 73 73 74 73 73 73 74 72 71 70 69 69 67 69 69
35 39 41 44 44 44 51 58 61 61 61 59 56 59 61 59 60 62 59 59 61 60 60 58 58 61 62 63 63 63 63 63 63 64 64 63 63 63 62 62 63 63 64 65 66 66 68 68 71 71 70 72 72 71 71 71 71 71 73 72 74 74 72 72 74 72 73 73 74 74 73 73 72 73 74 74 74 74 73 73 74 74 73 72 73 73 74 73 71 70 69 70 70 67 66 69 70
33 37 39 42 47 48 52 61 62 60 61 60 64 62 58 61 58 63 60 59 62 58 57 59 59 60 62 63 63 62 62 62 62 63 63 63 63 63 62 62 62 63 65 64 65 65 67 68 71 71 70 72 72 72 72 70 70 70 72 72 72 73 72 72 72 72 74 74 74 74 74 73 72 72 73 74 74 73 72 73 74 71 70 70 72 71 72 70 69 68 70 69 68 68 64 68 68
29 33 48 52 55 56 62 60 61 63 64 65 64 60 61 62 60 60 59 58 60 62 58 58 59 61 62 63 62 62 62 62 62 63 63 64 63 64 64 64 63 64 64 64 65 65 66 69 69 70 71 71 71 71 70 70 70 71 71 70 70 74 73 72 72 73 73 74 75 75 74 73 72 72 73 73 73 73 72 73 71 70 70 69 72 69 69 69 69 69 69 69 70 70 67 67 68
29 34 40 51 58 61 62 64 65 64 66 65 62 60 63 63 64 60 59 56 61 58 57 60 59 60 61 62 62 62 62 62 62 63 63 65 64 64 64 64 63 63 63 64 64 66 66 67 67 68 70 70 71 71 70 70 70 70 71 71 69 72 72 72 73 72 73 73 72 75 74 73 71 71 72 72 72 73 72 70 70 69 69 69 69 69 68 68 67 68 68 69 67 70 69 68 68
38 47 48 53 62 62 63 64 65 65 66 65 61 60 62 64 60 50 58 57 59 57 58 60 61 62 60 61 62 62 61 62 63 64 64 65 65 65 64 64 63 63 64 64 64 66 67 66 66 68 69 71 71 70 70 71 70 70 70 69 71 71 74 73 72 72 73 73 73 76 76 75 71 70 71 73 73 72 71 70 69 69 68 67 69 69 70 70 69 69 69 69 70 70 67 65 66
47 52 55 59 62 62 63 64 64 64 65 64 63 59 61 62 61 52 60 57 56 58 58 61 59 60 60 62 63 63 62 62 64 64 64 65 65 65 64 65 63 63 63 64 66 67 65 65 65 67 68 69 72 70 72 70 70 71 71 70 70 72 75 72 72 73 73 73 74 74 75 74 73 69 73 73 71 70 68 68 68 68 67 69 70 68 70 72 72 72 72 72 71 71 69 68 68
43 51 52 57 60 62 62 63 64 63 62 63 64 58 56 62 56 59 58 56 54 56 58 61 58 59 60 62 62 62 62 62 63 64 64 65 65 65 64 64 63 64 64 64 66 66 65 65 65 68 68 70 71 69 70 71 70 70 71 70 71 71 74 74 73 73 73 74 75 75 76 76 75 72 74 72 71 68 68 68 68 69 70 71 72 71 72 73 71 70 71 71 70 70 67 65 63
40 48 46 45 52 45 62 65 64 62 66 64 62 46 44 57 58 61 61 56 56 54 57 58 58 59 59 61 62 62 62 62 62 63 64 65 65 64 65 64 65 64 65 66 65 65 66 66 66 67 68 69 71 69 70 71 70 71 71 70 71 71 73 72 73 73 74 74 75 75 76 76 75 74 75 73 70 68 70 70 70 71 73 73 73 72 71 69 69 69 66 67 67 68 63 64 61
35 37 35 33 29 40 59 61 63 59 65 64 61 47 40 52 61 64 63 63 57 54 54 56 57 58 58 60 61 62 62 63 63 63 64 66 66 65 68 66 67 69 67 66 65 65 66 66 66 66 68 69 69 70 70 71 71 70 70 70 71 72 73 72 71 73 73 73 73 74 75 75 76 76 75 73 69 69 68 70 71 71 73 73 70 71 71 70 70 70 66 66 65 63 63 65 62
25 22 27 30 24 39 56 56 57 53 65 62 58 50 39 49 58 65 64 64 58 55 53 54 58 59 57 59 59 59 62 63 64 63 65 67 67 69 70 68 69 70 69 68 66 66 65 66 67 66 67 68 70 71 71 71 71 72 71 71 72 73 71 71 72 71 72 73 73 74 76 76 76 76 74 74 69 69 69 70 71 73 74 72 70 70 73 70 70 68 69 66 62 59 62 61 63
20 20 21 24 24 29 32 57 60 62 62 62 58 46 46 52 58 63 65 63 58 55 53 54 58 62 58 59 59 59 61 62 64 64 66 65 67 69 68 70 69 71 69 68 68 67 67 66 68 66 67 68 70 69 71 71 71 72 71 72 71 73 71 72 71 72 72 73 73 72 75 76 76 74 74 74 72 71 71 72 72 73 72 71 72 71 71 70 69 64 69 70 69 64 61 57 60
14 18 19 27 22 19 23 48 61 62 58 53 59 51 45 47 56 61 63 62 57 54 52 53 59 62 60 59 58 59 60 62 63 64 65 65 67 68 66 70 71 72 71 70 69 69 68 67 67 68 68 67 70 70 71 71 71 72 71 70 72 71 72 71 70 71 72 72 73 72 75 75 75 74 74 74 74 70 71 71 71 71 72 72 72 71 71 70 70 67 68 69 68 67 64 60 59
15 20 19 20 23 25 22 21 54 56 59 49 49 53 49 47 51 56 61 62 58 56 52 52 56 57 60 58 60 60 60 61 61 65 68 65 66 66 64 67 69 71 71 70 70 70 69 69 69 71 70 70 70 71 71 71 71 72 71 71 71 71 72 71 71 71 71 72 70 74 76 75 74 74 74 74 74 71 71 72 72 72 73 74 74 73 72 72 69 68 67 68 69 68 65 66 63
9 13 19 23 20 19 19 30 40 46 42 53 47 44 44 47 48 52 59 61 59 56 56 56 56 56 59 61 61 62 61 61 64 65 65 68 68 67 66 67 67 69 70 71 72 71 71 70 70 71 72 70 71 72 71 70 70 70 70 70 70 70 71 71 72 70 71 72 71 72 75 75 74 73 74 74 74 72 70 70 72 71 72 72 72 71 70 71 71 69 70 67 68 67 65 66 62
7 8 13 21 19 22 31 33 34 47 44 40 42 45 47 44 45 51 56 62 59 57 56 59 59 59 61 63 63 61 62 62 64 63 66 66 69 69 69 67 68 68 70 71 70 71 71 71 71 71 71 71 71 71 70 70 69 70 70 68 68 69 70 70 70 70 70 71 73 72 74 73 74 73 74 74 74 73 72 73 72 72 72 73 73 72 72 72 72 72 70 71 67 67 63 60 60
5 7 13 16 19 18 38 36 47 53 46 38 50 45 47 49 48 50 60 58 55 56 57 58 61 60 62 63 63 63 63 64 66 65 67 65 66 71 69 69 69 68 68 69 70 71 71 70 71 71 71 72 71 71 70 70 70 69 68 69 67 67 70 69 69 70 69 71 74 75 74 74 73 73 73 74 74 72 73 71 73 72 72 74 74 74 73 73 73 70 68 69 66 66 64 60 56
7 8 15 17 15 19 43 48 45 52 50 36 48 45 42 47 49 52 60 59 55 55 58 58 60 62 63 63 63 63 63 64 64 66 66 64 66 67 68 69 69 69 68 67 71 72 71 71 72 72 72 71 71 70 70 70 70 71 70 69 69 67 69 70 68 70 71 71 71 73 74 74 73 72 73 74 73 72 72 71 71 72 72 74 74 73 73 74 72 69 70 67 63 63 64 61 63
8 7 9 8 22 11 17 49 54 58 47 45 48 41 36 44 51 56 59 59 61 68 68 66 63 62 63 63 62 62 63 64 65 65 65 66 66 66 67 69 70 69 69 68 70 71 70 72 73 73 72 72 71 71 71 71 71 72 72 71 71 70 69 71 71 71 73 72 71 72 73 73 73 71 72 71 70 72 73 72 71 71 73 74 73 73 73 71 72 70 66 67 67 63 58 61 61
8 8 6 9 7 11 15 36 53 57 55 56 48 42 30 31 43 55 63 63 66 66 67 67 67 68 68 69 66 66 65 66 67 66 67 68 67 66 67 69 70 69 69 68 68 70 70 71 72 73 73 72 71 71 71 71 72 72 72 72 72 71 71 70 71 70 71 72 70 71 71 72 72 71 72 72 69 72 74 74 73 73 73 73 71 71 72 68 68 68 70 69 67 65 59 60 62
7 8 7 6 6 11 13 27 33 43 41 56 51 27 20 41 41 41 61 61 61 65 64 63 65 66 66 64 65 67 68 68 67 67 67 68 69 68 67 68 70 69 69 69 69 68 70 71 71 73 74 73 71 71 72 72 71 70 71 70 69 69 69 69 69 69 69 70 68 68 70 70 70 72 74 72 70 71 75 75 75 73 73 72 71 68 69 69 72 69 68 68 66 67 69 62 60
7 8 10 10 9 8 12 16 28 19 20 51 51 28 19 28 36 48 55 58 60 64 63 63 65 67 65 64 65 65 67 67 68 68 67 67 67 66 67 66 68 69 69 69 70 70 71 71 72 72 73 74 71 71 72 72 71 72 71 70 70 70 69 70 71 68 68 68 69 69 70 70 72 71 72 72 72 73 75 75 75 74 71 71 72 72 71 69 65 65 69 68 67 69 69 66 63
6 12 12 11 9 8 9 14 24 21 39 51 47 38 27 24 31 50 55 55 59 62 62 63 65 65 65 63 64 66 67 69 67 66 66 66 66 66 67 67 68 68 69 69 70 70 70 72 72 72 72 72 72 72 72 73 73 72 72 70 69 70 68 68 70 70 69 70 69 70 70 70 73 72 71 72 73 74 75 74 75 74 71 69 69 69 67 66 68 71 72 72 71 71 71 67 64
14 17 14 15 14 12 11 14 18 23 25 27 41 45 31 28 39 50 52 53 55 58 60 61 63 63 63 63 62 64 68 67 66 65 64 65 66 67 67 67 68 69 70 69 70 70 71 72 73 74 74 74 73 72 73 73 74 73 72 69 68 69 67 68 70 71 70 71 71 71 71 70 71 72 73 72 73 73 74 73 74 74 71 70 71 68 67 69 72 72 73 74 72 70 68 67 68
20 29 23 26 25 21 20 19 23 30 27 22 29 39 30 26 39 47 48 48 50 53 56 58 61 62 62 60 60 63 66 66 66 65 65 66 67 68 69 68 69 69 71 71 71 70 71 72 73 74 73 72 71 73 73 74 73 73 72 72 69 68 68 68 69 70 71 71 71 72 72 71 69 70 72 73 73 73 74 74 71 71 71 68 68 67 70 72 73 73 72 71 71 70 70 67 66
28 30 24 21 23 26 28 31 36 34 27 29 30 34 31 28 33 36 41 49 47 48 51 55 59 61 59 59 59 61 63 65 65 65 65 66 68 69 69 69 71 69 69 71 70 71 70 72 73 72 72 72 73 72 73 72 72 72 70 71 70 69 69 69 69 70 71 71 71 71 71 72 70 68 68 71 72 71 72 72 69 68 68 69 70 69 71 70 69 69 69 73 74 72 68 68 68
27 22 17 18 26 32 34 38 35 27 27 31 32 31 37 28 34 42 47 49 48 49 51 55 56 58 58 58 58 60 62 64 65 65 66 66 67 68 69 69 69 69 69 70 70 71 71 72 71 72 71 72 73 72 73 72 71 70 72 72 71 71 70 68 69 70 70 70 69 69 71 70 70 69 69 69 70 69 71 71 71 69 69 69 70 70 71 70 70 69 70 72 73 73 73 71 68
25 17 19 15 22 27 23 32 27 27 23 39 38 42 41 36 34 34 48 47 51 52 54 53 54 56 57 56 60 63 63 63 64 64 66 66 66 67 69 69 70 71 70 69 70 70 71 71 71 71 71 71 70 71 72 72 70 70 73 73 71 71 70 70 70 70 70 69 68 69 71 70 70 69 69 67 67 68 71 72 71 70 70 71 72 72 73 73 73 70 72 70 70 73 70 71 68
19 15 16 17 19 17 19 19 21 22 25 34 37 49 37 27 32 45 44 50 51 55 55 55 54 55 56 57 59 62 63 63 63 63 65 66 67 68 67 68 69 70 70 71 71 71 70 70 70 70 70 71 72 74 72 73 72 72 72 71 72 71 71 70 69 69 68 69 68 69 68 67 69 68 68 68 67 68 68 70 71 72 73 73 73 74 75 75 76 73 73 70 70 71 72 72 70
16 13 8 13 20 14 19 18 16 14 20 34 47 37 31 28 54 46 50 50 53 53 54 56 57 57 58 58 60 61 63 65 64 63 63 66 67 67 67 67 68 70 71 71 71 71 71 71 71 71 70 73 74 71 71 71 72 71 71 71 74 72 71 69 69 69 69 68 67 67 69 67 67 68 67 68 69 69 69 71 72 72 73 74 74 75 72 75 76 75 74 73 71 72 72 70 67
9 10 10 11 15 17 17 21 18 17 17 23 42 28 28 34 51 51 51 50 52 53 55 57 57 59 60 59 59 60 62 62 63 64 64 66 67 68 69 70 70 70 70 70 70 70 70 70 71 71 71 71 72 72 71 71 71 71 71 71 70 71 70 68 70 70 70 68 68 68 70 69 67 67 68 69 70 70 70 71 73 72 74 73 74 74 74 73 75 75 74 74 73 69 71 71 69
11 10 11 12 15 12 20 22 26 24 23 22 28 28 29 40 44 46 50 51 53 52 54 54 56 57 59 57 59 60 61 62 62 63 63 66 67 67 68 69 69 70 70 69 71 70 71 71 70 70 71 72 71 71 71 72 70 71 71 70 71 71 68 68 68 69 68 69 70 69 68 66 66 68 66 69 70 70 70 71 71 70 73 74 73 73 73 74 75 74 73 75 72 70 73 72 68
12 11 12 18 18 15 20 21 24 21 18 22 23 21 25 31 28 48 50 51 52 51 52 52 57 58 57 57 59 61 61 63 64 65 65 65 66 67 68 69 70 70 69 69 69 70 70 70 70 71 70 70 71 71 72 72 72 71 72 71 69 70 69 66 68 67 67 69 69 69 68 67 66 65 67 65 67 66 69 71 72 72 71 72 72 71 73 73 75 73 72 73 71 72 73 72 71
11 13 15 12 18 20 26 23 22 19 20 22 22 28 27 31 35 42 47 46 49 51 54 55 56 58 58 58 59 61 61 62 64 64 65 66 66 66 67 68 69 70 70 70 70 70 70 70 70 70 70 69 70 70 70 70 74 70 70 69 69 70 67 66 67 69 69 68 67 67 66 67 66 67 67 68 66 64 67 69 71 71 71 72 71 71 73 74 74 73 71 71 70 73 74 72 72
15 16 14 16 18 18 21 21 23 24 21 20 24 28 26 34 29 30 44 46 48 49 51 51 55 57 59 60 59 59 60 62 63 64 63 65 65 66 69 70 70 69 70 70 70 71 71 71 70 69 70 70 70 71 70 71 70 70 69 70 69 69 68 67 67 68 67 67 66 66 65 65 65 65 66 67 66 64 65 67 67 67 66 68 68 68 70 72 74 73 71 68 68 73 72 72 70
14 14 16 16 17 21 18 18 20 21 22 21 23 21 25 40 44 41 45 45 47 49 50 53 55 57 60 60 60 61 61 61 62 63 63 64 65 66 69 70 71 71 71 71 71 71 70 70 70 69 68 67 67 67 70 70 73 73 71 68 67 69 67 67 67 68 66 67 66 67 65 65 66 66 67 67 66 66 66 67 66 66 64 68 69 68 68 72 73 73 71 72 71 72 72 70 71
14 13 15 15 16 21 21 24 23 21 21 26 22 24 31 44 51 51 51 52 50 52 53 52 56 59 61 61 62 63 62 62 62 61 61 63 66 66 68 69 69 70 71 70 70 70 70 69 69 68 67 68 70 68 68 69 70 70 68 67 67 68 69 69 67 67 66 65 65 67 67 66 65 67 67 66 67 64 65 66 65 65 66 65 67 69 66 68 70 71 70 67 67 73 74 72 70